Weather History for Grant County, OR

Change the Weather History Date:

Tuesday, April 22, 2014

  Actual Average (KBNO) Record (KBNO)
Temperature  
Mean Temperature 46 °F 44 °F  
Max Temperature 57 °F 59 °F 83 °F (2012)
Min Temperature 33 °F 30 °F 17 °F (1972)
Degree Days  
Heating Degree Days 19 21  
Month to date heating degree days 500  
Since 1 July heating degree days 6885  
Cooling Degree Days 0 0  
Month to date cooling degree days 0  
Year to date cooling degree days 0  
Moisture  
Dew Point 32 °F    
Average Humidity 68    
Maximum Humidity 93    
Minimum Humidity 37    
Precipitation  
Precipitation 0.00 in 0.03 in 0.33 in (1979)
Month to date precipitation 0.68  
Year to date precipitation 3.98  
Sea Level Pressure  
Sea Level Pressure 29.84 in    
Wind  
Wind Speed 13 mph (WSW)    
Max Wind Speed 24 mph    
Max Gust Speed 34 mph    
Visibility 10 miles    
Events Rain , Snow    
T = Trace of Precipitation, MM = Missing Value Source: NWS Daily Summary

Daily Weather History Graph

Daily Weather History Graph

Search for Another Location

Airport:

Trip Planner

Search our weather history database for the weather conditions in past years. The results will help you decide how hot, cold, wet, or windy it might be!

Date:

Astronomy

Apr. 22, 2014 Rise Set
Actual Time 6:00 AM PDT 7:49 PM PDT
Civil Twilight 5:29 AM PDT 8:20 PM PDT
Nautical Twilight 4:51 AM PDT 8:58 PM PDT
Astronomical Twilight 4:10 AM PDT 9:39 PM PDT
Moon 2:08 AM PDT (4/22) 12:40 PM PDT (4/22)
Length of Visible Light 14h 51m
Length of Day
13h 48m
Last Quarter, 45% of the Moon is Illuminated
Apr 22
Last Quarter
Apr 28
New
May 6
First Quarter
May 14
Full
May 21
Last Quarter

Hourly Weather History & Observations

Time (PDT) Temp. Windchill Dew Point Humidity Pressure Visibility Wind Dir Wind Speed Gust Speed Precip Events Conditions
12:16 AM 57.2 °F - 35.6 °F 44% 29.76 in 10.0 mi South 15.0 mph 24.2 mph N/A Rain Light Rain
12:38 AM 57.2 °F - 35.6 °F 44% 29.76 in 10.0 mi South 13.8 mph 25.3 mph N/A   Overcast
12:56 AM 55.4 °F - 33.8 °F 44% 29.77 in 10.0 mi WSW 13.8 mph 27.6 mph N/A   Overcast
1:16 AM 51.8 °F - 37.4 °F 58% 29.81 in 10.0 mi SSW 20.7 mph 31.1 mph N/A Rain Rain
1:56 AM 48.2 °F - 41.0 °F 76% 29.81 in 10.0 mi SSW 15.0 mph 20.7 mph N/A Rain Rain
2:16 AM 46.4 °F 40.1 °F 39.2 °F 76% 29.77 in 10.0 mi South 15.0 mph 21.9 mph N/A   Overcast
2:56 AM 48.2 °F - 39.2 °F 71% 29.75 in 10.0 mi South 21.9 mph 27.6 mph N/A   Scattered Clouds
3:16 AM 48.2 °F - 37.4 °F 66% 29.75 in 10.0 mi South 17.3 mph 25.3 mph N/A   Mostly Cloudy
3:38 AM 50.0 °F - 37.4 °F 62% 29.74 in 10.0 mi South 18.4 mph 24.2 mph N/A   Overcast
3:56 AM 50.0 °F - 37.4 °F 62% 29.74 in 10.0 mi South 16.1 mph - N/A   Overcast
4:16 AM 50.0 °F - 35.6 °F 58% 29.74 in 10.0 mi SSW 13.8 mph - N/A   Overcast
4:56 AM 42.8 °F 34.5 °F 39.2 °F 87% 29.77 in 10.0 mi West 18.4 mph - N/A   Overcast
5:17 AM 39.2 °F 30.5 °F 37.4 °F 93% 29.76 in 10.0 mi West 16.1 mph - N/A   Mostly Cloudy
5:56 AM 41.0 °F 35.2 °F 35.6 °F 81% 29.77 in 10.0 mi West 9.2 mph - N/A   Overcast
6:36 AM 39.2 °F 32.5 °F 35.6 °F 87% 29.76 in 10.0 mi West 10.4 mph - N/A   Overcast
6:56 AM 39.2 °F 32.5 °F 35.6 °F 87% 29.77 in 10.0 mi West 10.4 mph - N/A   Overcast
7:36 AM 39.2 °F 32.5 °F 37.4 °F 93% 29.78 in 10.0 mi WSW 10.4 mph - N/A   Overcast
7:58 AM 39.2 °F 32.5 °F 37.4 °F 93% 29.79 in 10.0 mi West 10.4 mph - N/A   Drizzle
8:36 AM 39.2 °F 31.2 °F 37.4 °F 93% 29.80 in 10.0 mi West 13.8 mph - N/A Rain Light Rain
8:56 AM 39.2 °F 31.6 °F 37.4 °F 93% 29.80 in 10.0 mi West 12.7 mph - N/A   Light Drizzle
9:16 AM 37.4 °F 30.3 °F 35.6 °F 93% 29.81 in 7.0 mi West 10.4 mph - N/A Rain Rain
9:36 AM 37.4 °F 29.3 °F 35.6 °F 93% 29.81 in 10.0 mi West 12.7 mph - N/A Rain Light Rain
10:16 AM 37.4 °F 28.9 °F 35.6 °F 93% 29.82 in 10.0 mi West 13.8 mph 19.6 mph N/A Rain Light Rain
10:36 AM 39.2 °F 29.6 °F 35.6 °F 87% 29.82 in 10.0 mi West 19.6 mph 25.3 mph N/A Rain Light Rain
10:56 AM 37.4 °F 28.5 °F 35.6 °F 93% 29.83 in 3.0 mi West 15.0 mph 27.6 mph N/A Snow Light Snow
11:16 AM 39.2 °F 32.5 °F 37.4 °F 93% 29.84 in 10.0 mi West 10.4 mph - N/A Rain Light Rain
11:36 AM 41.0 °F 33.1 °F 37.4 °F 87% 29.84 in 10.0 mi West 15.0 mph - N/A   Overcast
11:58 AM 41.0 °F 32.2 °F 35.6 °F 81% 29.84 in 7.0 mi West 18.4 mph - N/A Rain Rain
12:16 PM 39.2 °F 30.5 °F 37.4 °F 93% 29.83 in 5.0 mi WNW 16.1 mph 25.3 mph N/A Rain Light Rain
12:58 PM 42.8 °F 37.5 °F 37.4 °F 81% 29.83 in 10.0 mi West 9.2 mph - N/A   Mostly Cloudy
1:16 PM 44.6 °F 37.4 °F 33.8 °F 66% 29.83 in 10.0 mi West 16.1 mph - N/A Rain Light Rain
1:36 PM 46.4 °F 40.7 °F 33.8 °F 62% 29.84 in 10.0 mi West 12.7 mph 20.7 mph N/A   Overcast
2:16 PM 46.4 °F 40.1 °F 32.0 °F 57% 29.84 in 10.0 mi West 15.0 mph 25.3 mph N/A   Mostly Cloudy
2:36 PM 48.2 °F - 30.2 °F 50% 29.84 in 10.0 mi West 13.8 mph 25.3 mph N/A   Mostly Cloudy
2:58 PM 48.2 °F - 26.6 °F 43% 29.84 in 10.0 mi West 18.4 mph - N/A   Scattered Clouds
3:35 PM 48.2 °F - 23.0 °F 37% 29.84 in 10.0 mi WNW 13.8 mph 25.3 mph N/A   Scattered Clouds
4:15 PM 50.0 °F - 24.8 °F 37% 29.84 in 10.0 mi West 17.3 mph 25.3 mph N/A   Mostly Cloudy
4:35 PM 46.4 °F 38.1 °F 24.8 °F 43% 29.86 in 10.0 mi West 24.2 mph 34.5 mph N/A   Mostly Cloudy
4:58 PM 46.4 °F 38.7 °F 26.6 °F 46% 29.87 in 10.0 mi WNW 20.7 mph 28.8 mph N/A   Overcast
5:15 PM 44.6 °F 38.8 °F 26.6 °F 49% 29.87 in 10.0 mi West 11.5 mph - N/A   Mostly Cloudy
5:35 PM 46.4 °F 41.5 °F 23.0 °F 40% 29.86 in 10.0 mi West 10.4 mph 18.4 mph N/A   Mostly Cloudy
5:57 PM 46.4 °F 40.7 °F 21.2 °F 37% 29.86 in 10.0 mi West 12.7 mph 17.3 mph N/A   Scattered Clouds
6:15 PM 42.8 °F 36.6 °F 28.4 °F 57% 29.87 in 7.0 mi North 11.5 mph 20.7 mph N/A   Overcast
6:35 PM 42.8 °F 41.1 °F 26.6 °F 53% 29.88 in 10.0 mi West 3.5 mph - N/A   Scattered Clouds
7:15 PM 42.8 °F 38.0 °F 28.4 °F 57% 29.88 in 10.0 mi SW 8.1 mph - N/A   Mostly Cloudy
7:38 PM 42.8 °F 40.1 °F 26.6 °F 53% 29.88 in 10.0 mi WNW 4.6 mph - N/A   Mostly Cloudy
7:56 PM 41.0 °F 36.4 °F 28.4 °F 61% 29.90 in 10.0 mi WSW 6.9 mph - N/A   Mostly Cloudy
8:16 PM 39.2 °F 37.0 °F 28.4 °F 65% 29.90 in 10.0 mi WSW 3.5 mph - N/A   Mostly Cloudy
8:35 PM 39.2 °F 37.0 °F 28.4 °F 65% 29.91 in 10.0 mi South 3.5 mph - N/A   Scattered Clouds
8:57 PM 39.2 °F - 26.6 °F 61% 29.92 in 10.0 mi Calm Calm - N/A   Scattered Clouds
9:16 PM 39.2 °F - 26.6 °F 61% 29.92 in 10.0 mi Calm Calm - N/A   Scattered Clouds
9:55 PM 39.2 °F - 26.6 °F 61% 29.93 in 10.0 mi Calm Calm - N/A   Overcast
10:15 PM 39.2 °F - 26.6 °F 61% 29.93 in 10.0 mi Calm Calm - N/A   Scattered Clouds
10:37 PM 37.4 °F 34.9 °F 24.8 °F 60% 29.93 in 10.0 mi WSW 3.5 mph - N/A   Clear
10:55 PM 37.4 °F - 24.8 °F 60% 29.93 in 10.0 mi Calm Calm - N/A   Clear
11:15 PM 35.6 °F 32.8 °F 28.4 °F 75% 29.94 in 10.0 mi ESE 3.5 mph - N/A   Clear
11:37 PM 35.6 °F 31.7 °F 28.4 °F 75% 29.94 in 10.0 mi East 4.6 mph - N/A   Mostly Cloudy
11:55 PM 33.8 °F 27.7 °F 28.4 °F 81% 29.95 in 10.0 mi ESE 6.9 mph - N/A   Scattered Clouds